Time,TemperatureF,DewpointF,PressureIn,WindDirection,WindDirectionDegrees,WindSpeedMPH,WindSpeedGustMPH,Humidity,HourlyPrecipIn,Conditions,Clouds,dailyrainin,SoftwareType,DateUTC
2013-02-24 00:00:00,40.7,29.1,29.88,SSW,208,0.0,2.0,63,0.00,,,0.00,VWS V14.01,2013-02-24 07:00:00,
2013-02-24 00:01:00,40.7,29.1,29.88,SSW,208,0.0,2.0,63,0.00,,,0.00,VWS V14.01,2013-02-24 07:01:00,
2013-02-24 00:05:00,40.9,28.9,29.88,SSW,208,0.0,0.0,62,0.00,,,0.00,VWS V14.01,2013-02-24 07:05:00,
2013-02-24 00:09:00,41.2,28.8,29.88,SSW,208,0.0,0.0,61,0.00,,,0.00,VWS V14.01,2013-02-24 07:09:00,
2013-02-24 00:10:00,41.2,28.8,29.88,SSW,208,0.0,0.0,61,0.00,,,0.00,VWS V14.01,2013-02-24 07:10:00,
2013-02-24 00:14:00,41.4,28.6,29.88,SSW,208,0.0,0.0,60,0.00,,,0.00,VWS V14.01,2013-02-24 07:14:00,
2013-02-24 00:15:00,41.4,28.6,29.88,SSW,208,0.0,0.0,60,0.00,,,0.00,VWS V14.01,2013-02-24 07:15:00,
2013-02-24 00:19:00,41.6,28.8,29.88,SSW,208,0.0,0.0,60,0.00,,,0.00,VWS V14.01,2013-02-24 07:19:00,
2013-02-24 00:20:00,41.8,29.0,29.88,SSW,208,0.0,1.0,60,0.00,,,0.00,VWS V14.01,2013-02-24 07:20:00,
2013-02-24 00:24:00,42.0,28.3,29.88,SSW,208,0.0,1.0,58,0.00,,,0.00,VWS V14.01,2013-02-24 07:24:00,
2013-02-24 00:25:00,42.1,28.4,29.88,SSW,208,0.0,1.0,58,0.00,,,0.00,VWS V14.01,2013-02-24 07:25:00,
2013-02-24 00:29:00,42.2,28.5,29.88,SSW,208,0.0,0.0,58,0.00,,,0.00,VWS V14.01,2013-02-24 07:29:00,
2013-02-24 00:30:00,42.3,28.6,29.88,SSW,208,0.0,0.0,58,0.00,,,0.00,VWS V14.01,2013-02-24 07:30:00,
2013-02-24 00:34:00,42.3,28.2,29.88,SSW,208,0.0,0.0,57,0.00,,,0.00,VWS V14.01,2013-02-24 07:34:00,
2013-02-24 00:35:00,42.4,28.3,29.88,SSW,208,0.0,0.0,57,0.00,,,0.00,VWS V14.01,2013-02-24 07:35:00,
2013-02-24 00:39:00,42.4,29.1,29.88,SSW,208,0.0,0.0,59,0.00,,,0.00,VWS V14.01,2013-02-24 07:39:00,
2013-02-24 00:40:00,42.4,29.5,29.88,SSW,208,0.0,0.0,60,0.00,,,0.00,VWS V14.01,2013-02-24 07:40:00,
2013-02-24 00:44:00,42.4,28.7,29.87,SSW,208,0.0,0.0,58,0.00,,,0.00,VWS V14.01,2013-02-24 07:44:00,
2013-02-24 00:45:00,42.4,29.1,29.87,SSW,208,0.0,0.0,59,0.00,,,0.00,VWS V14.01,2013-02-24 07:45:00,
2013-02-24 00:49:00,42.3,29.4,29.88,SSW,208,0.0,1.0,60,0.00,,,0.00,VWS V14.01,2013-02-24 07:49:00,
2013-02-24 00:50:00,42.3,29.0,29.88,SSW,208,0.0,1.0,59,0.00,,,0.00,VWS V14.01,2013-02-24 07:50:00,
2013-02-24 00:54:00,42.1,28.0,29.87,SSW,208,0.0,0.0,57,0.00,,,0.00,VWS V14.01,2013-02-24 07:54:00,
2013-02-24 00:55:00,42.0,28.3,29.87,SSW,208,0.0,0.0,58,0.00,,,0.00,VWS V14.01,2013-02-24 07:55:00,
2013-02-24 00:59:00,41.9,27.8,29.87,SSW,208,0.0,1.0,57,0.00,,,0.00,VWS V14.01,2013-02-24 07:59:00,
2013-02-24 01:00:00,41.8,27.7,29.88,SSW,208,0.0,1.0,57,0.00,,,0.00,VWS V14.01,2013-02-24 08:00:00,
2013-02-24 01:04:00,41.7,28.0,29.87,SSW,208,0.0,1.0,58,0.00,,,0.00,VWS V14.01,2013-02-24 08:04:00,
2013-02-24 01:05:00,41.6,28.4,29.87,SSW,208,0.0,1.0,59,0.00,,,0.00,VWS V14.01,2013-02-24 08:05:00,
2013-02-24 01:09:00,41.4,29.0,29.87,SSW,208,1.0,1.0,61,0.00,,,0.00,VWS V14.01,2013-02-24 08:09:00,
2013-02-24 01:10:00,41.2,28.8,29.87,SSW,208,0.0,1.0,61,0.00,,,0.00,VWS V14.01,2013-02-24 08:10:00,
2013-02-24 01:14:00,40.9,28.9,29.87,SSW,208,2.0,3.0,62,0.00,,,0.00,VWS V14.01,2013-02-24 08:14:00,
2013-02-24 01:15:00,40.6,28.6,29.87,SSW,208,3.0,3.0,62,0.00,,,0.00,VWS V14.01,2013-02-24 08:15:00,
2013-02-24 01:19:00,40.1,28.5,29.87,SSW,208,1.0,4.0,63,0.00,,,0.00,VWS V14.01,2013-02-24 08:19:00,
2013-02-24 01:20:00,39.8,28.6,29.87,SSW,208,2.0,4.0,64,0.00,,,0.00,VWS V14.01,2013-02-24 08:20:00,
2013-02-24 01:24:00,39.3,28.9,29.87,SSW,208,0.0,3.0,66,0.00,,,0.00,VWS V14.01,2013-02-24 08:24:00,
2013-02-24 01:25:00,39.1,28.7,29.87,SSW,208,1.0,3.0,66,0.00,,,0.00,VWS V14.01,2013-02-24 08:25:00,
2013-02-24 01:29:00,38.8,28.8,29.87,SSW,208,0.0,2.0,67,0.00,,,0.00,VWS V14.01,2013-02-24 08:29:00,
2013-02-24 01:30:00,38.7,28.7,29.87,SSW,208,0.0,2.0,67,0.00,,,0.00,VWS V14.01,2013-02-24 08:30:00,
2013-02-24 01:34:00,38.5,28.5,29.87,SSW,208,0.0,1.0,67,0.00,,,0.00,VWS V14.01,2013-02-24 08:34:00,
2013-02-24 01:35:00,38.4,28.8,29.87,SSW,208,0.0,1.0,68,0.00,,,0.00,VWS V14.01,2013-02-24 08:35:00,
2013-02-24 01:39:00,38.2,28.6,29.88,SSW,208,1.0,2.0,68,0.00,,,0.00,VWS V14.01,2013-02-24 08:39:00,
2013-02-24 01:40:00,38.1,28.5,29.87,SSW,208,1.0,2.0,68,0.00,,,0.00,VWS V14.01,2013-02-24 08:40:00,
2013-02-24 01:44:00,38.1,28.5,29.87,SSW,208,1.0,2.0,68,0.00,,,0.00,VWS V14.01,2013-02-24 08:44:00,
2013-02-24 01:45:00,38.2,28.6,29.87,SSW,208,0.0,2.0,68,0.00,,,0.00,VWS V14.01,2013-02-24 08:45:00,
2013-02-24 01:49:00,38.3,28.7,29.87,SSW,208,0.0,1.0,68,0.00,,,0.00,VWS V14.01,2013-02-24 08:49:00,
2013-02-24 01:50:00,38.4,28.4,29.87,SSW,208,0.0,1.0,67,0.00,,,0.00,VWS V14.01,2013-02-24 08:50:00,
2013-02-24 01:54:00,38.5,28.9,29.87,SSW,208,0.0,0.0,68,0.00,,,0.00,VWS V14.01,2013-02-24 08:54:00,
2013-02-24 01:55:00,38.5,28.9,29.87,SSW,208,0.0,0.0,68,0.00,,,0.00,VWS V14.01,2013-02-24 08:55:00,
2013-02-24 01:59:00,38.7,28.7,29.87,SSW,208,0.0,1.0,67,0.00,,,0.00,VWS V14.01,2013-02-24 08:59:00,
2013-02-24 02:00:00,38.7,29.1,29.87,SSW,208,0.0,1.0,68,0.00,,,0.00,VWS V14.01,2013-02-24 09:00:00,
2013-02-24 02:04:00,38.9,28.9,29.87,SSW,208,0.0,0.0,67,0.00,,,0.00,VWS V14.01,2013-02-24 09:04:00,
2013-02-24 02:05:00,39.0,29.4,29.86,SSW,208,0.0,0.0,68,0.00,,,0.00,VWS V14.01,2013-02-24 09:05:00,
2013-02-24 02:09:00,39.2,29.2,29.86,SSW,208,0.0,0.0,67,0.00,,,0.00,VWS V14.01,2013-02-24 09:09:00,
2013-02-24 02:10:00,39.3,29.3,29.86,SSW,208,0.0,0.0,67,0.00,,,0.00,VWS V14.01,2013-02-24 09:10:00,
2013-02-24 02:14:00,39.3,29.3,29.86,SSW,208,0.0,0.0,67,0.00,,,0.00,VWS V14.01,2013-02-24 09:14:00,
2013-02-24 02:15:00,39.3,29.3,29.86,SSW,208,0.0,0.0,67,0.00,,,0.00,VWS V14.01,2013-02-24 09:15:00,
2013-02-24 02:19:00,39.3,29.3,29.86,SSW,208,1.0,2.0,67,0.00,,,0.00,VWS V14.01,2013-02-24 09:19:00,
2013-02-24 02:20:00,39.3,29.3,29.86,SSW,208,2.0,3.0,67,0.00,,,0.00,VWS V14.01,2013-02-24 09:20:00,
2013-02-24 02:24:00,39.2,29.2,29.86,SSW,208,0.0,2.0,67,0.00,,,0.00,VWS V14.01,2013-02-24 09:24:00,
2013-02-24 02:25:00,39.2,29.2,29.86,SSW,208,1.0,2.0,67,0.00,,,0.00,VWS V14.01,2013-02-24 09:25:00,
2013-02-24 02:29:00,39.1,29.1,29.86,SSW,208,1.0,3.0,67,0.00,,,0.00,VWS V14.01,2013-02-24 09:29:00,
2013-02-24 02:30:00,39.0,28.6,29.86,SSW,208,2.0,3.0,66,0.00,,,0.00,VWS V14.01,2013-02-24 09:30:00,
2013-02-24 02:34:00,38.9,28.9,29.86,SSW,208,0.0,2.0,67,0.00,,,0.00,VWS V14.01,2013-02-24 09:34:00,
2013-02-24 02:35:00,38.9,28.9,29.86,SSW,208,0.0,2.0,67,0.00,,,0.00,VWS V14.01,2013-02-24 09:35:00,
2013-02-24 02:39:00,38.8,29.2,29.85,SSW,208,0.0,0.0,68,0.00,,,0.00,VWS V14.01,2013-02-24 09:39:00,
2013-02-24 02:40:00,38.8,29.2,29.85,SSW,208,0.0,0.0,68,0.00,,,0.00,VWS V14.01,2013-02-24 09:40:00,
2013-02-24 02:44:00,38.7,29.1,29.84,SSW,208,0.0,0.0,68,0.00,,,0.00,VWS V14.01,2013-02-24 09:44:00,
2013-02-24 02:45:00,38.7,29.4,29.84,SSW,208,0.0,0.0,69,0.00,,,0.00,VWS V14.01,2013-02-24 09:45:00,
2013-02-24 02:49:00,38.5,28.9,29.84,SSW,208,0.0,1.0,68,0.00,,,0.00,VWS V14.01,2013-02-24 09:49:00,
2013-02-24 02:50:00,38.5,28.9,29.84,SSW,208,0.0,1.0,68,0.00,,,0.00,VWS V14.01,2013-02-24 09:50:00,
2013-02-24 02:54:00,38.4,28.8,29.84,SSW,208,0.0,0.0,68,0.00,,,0.00,VWS V14.01,2013-02-24 09:54:00,
2013-02-24 02:55:00,38.4,28.8,29.84,SSW,208,0.0,0.0,68,0.00,,,0.00,VWS V14.01,2013-02-24 09:55:00,
2013-02-24 02:59:00,38.4,29.5,29.84,SSW,208,0.0,0.0,70,0.00,,,0.00,VWS V14.01,2013-02-24 09:59:00,
2013-02-24 03:00:00,38.4,29.5,29.84,SSW,208,0.0,0.0,70,0.00,,,0.00,VWS V14.01,2013-02-24 10:00:00,
2013-02-24 03:04:00,38.3,29.0,29.83,SSW,208,0.0,0.0,69,0.00,,,0.00,VWS V14.01,2013-02-24 10:04:00,
2013-02-24 03:05:00,38.3,29.4,29.83,SSW,208,0.0,0.0,70,0.00,,,0.00,VWS V14.01,2013-02-24 10:05:00,
2013-02-24 03:09:00,38.3,29.4,29.83,SSW,208,0.0,0.0,70,0.00,,,0.00,VWS V14.01,2013-02-24 10:09:00,
2013-02-24 03:10:00,38.2,29.3,29.83,SSW,208,0.0,0.0,70,0.00,,,0.00,VWS V14.01,2013-02-24 10:10:00,
2013-02-24 03:14:00,38.2,28.9,29.83,SSW,208,0.0,0.0,69,0.00,,,0.00,VWS V14.01,2013-02-24 10:14:00,
2013-02-24 03:15:00,38.2,28.9,29.83,SSW,208,0.0,0.0,69,0.00,,,0.00,VWS V14.01,2013-02-24 10:15:00,
2013-02-24 03:19:00,38.2,28.9,29.83,SSW,208,0.0,0.0,69,0.00,,,0.00,VWS V14.01,2013-02-24 10:19:00,
2013-02-24 03:20:00,38.2,28.9,29.83,SSW,208,0.0,0.0,69,0.00,,,0.00,VWS V14.01,2013-02-24 10:20:00,
2013-02-24 03:24:00,38.2,28.9,29.83,SSW,208,0.0,0.0,69,0.00,,,0.00,VWS V14.01,2013-02-24 10:24:00,
2013-02-24 03:25:00,38.2,28.9,29.83,SSW,208,0.0,0.0,69,0.00,,,0.00,VWS V14.01,2013-02-24 10:25:00,
2013-02-24 03:29:00,38.3,28.7,29.83,SSW,208,0.0,0.0,68,0.00,,,0.00,VWS V14.01,2013-02-24 10:29:00,
2013-02-24 03:30:00,38.3,28.7,29.83,SSW,208,0.0,0.0,68,0.00,,,0.00,VWS V14.01,2013-02-24 10:30:00,
2013-02-24 03:34:00,38.4,28.8,29.83,SSW,208,1.0,2.0,68,0.00,,,0.00,VWS V14.01,2013-02-24 10:34:00,
2013-02-24 03:35:00,38.4,28.8,29.83,SSW,208,0.0,2.0,68,0.00,,,0.00,VWS V14.01,2013-02-24 10:35:00,
2013-02-24 03:39:00,38.5,28.5,29.82,SSW,208,0.0,0.0,67,0.00,,,0.00,VWS V14.01,2013-02-24 10:39:00,
2013-02-24 03:40:00,38.5,28.5,29.82,SSW,208,0.0,0.0,67,0.00,,,0.00,VWS V14.01,2013-02-24 10:40:00,
2013-02-24 03:44:00,38.5,28.5,29.82,SSW,208,0.0,0.0,67,0.00,,,0.00,VWS V14.01,2013-02-24 10:44:00,
2013-02-24 03:45:00,38.5,28.1,29.82,SSW,208,0.0,0.0,66,0.00,,,0.00,VWS V14.01,2013-02-24 10:45:00,
2013-02-24 03:49:00,38.5,28.1,29.82,SSW,208,0.0,0.0,66,0.00,,,0.00,VWS V14.01,2013-02-24 10:49:00,
2013-02-24 03:50:00,38.5,27.8,29.82,SSW,208,0.0,0.0,65,0.00,,,0.00,VWS V14.01,2013-02-24 10:50:00,
2013-02-24 03:54:00,38.5,27.8,29.82,SSW,208,0.0,0.0,65,0.00,,,0.00,VWS V14.01,2013-02-24 10:54:00,
2013-02-24 03:59:00,38.5,27.8,29.82,SSW,208,0.0,0.0,65,0.00,,,0.00,VWS V14.01,2013-02-24 10:59:00,
2013-02-24 04:04:00,38.5,27.8,29.81,SSW,208,0.0,0.0,65,0.00,,,0.00,VWS V14.01,2013-02-24 11:04:00,
2013-02-24 04:05:00,38.5,27.8,29.81,SSW,208,0.0,0.0,65,0.00,,,0.00,VWS V14.01,2013-02-24 11:05:00,
2013-02-24 04:09:00,38.5,27.8,29.81,SSW,208,0.0,1.0,65,0.00,,,0.00,VWS V14.01,2013-02-24 11:09:00,
2013-02-24 04:10:00,38.5,27.8,29.81,SSW,208,0.0,1.0,65,0.00,,,0.00,VWS V14.01,2013-02-24 11:10:00,
2013-02-24 04:14:00,38.6,28.2,29.81,SSW,208,0.0,1.0,66,0.00,,,0.00,VWS V14.01,2013-02-24 11:14:00,
2013-02-24 04:15:00,38.6,27.9,29.81,SSW,208,0.0,1.0,65,0.00,,,0.00,VWS V14.01,2013-02-24 11:15:00,
2013-02-24 04:19:00,38.5,27.8,29.81,SSW,208,0.0,0.0,65,0.00,,,0.00,VWS V14.01,2013-02-24 11:19:00,
2013-02-24 04:20:00,38.6,27.9,29.81,SSW,208,0.0,0.0,65,0.00,,,0.00,VWS V14.01,2013-02-24 11:20:00,
2013-02-24 04:24:00,38.6,27.9,29.81,SSW,208,0.0,1.0,65,0.00,,,0.00,VWS V14.01,2013-02-24 11:24:00,
2013-02-24 04:25:00,38.6,27.9,29.81,SSW,208,0.0,1.0,65,0.00,,,0.00,VWS V14.01,2013-02-24 11:25:00,
2013-02-24 04:29:00,38.7,28.0,29.81,SSW,208,0.0,0.0,65,0.00,,,0.00,VWS V14.01,2013-02-24 11:29:00,
2013-02-24 04:30:00,38.7,28.0,29.81,SSW,208,1.0,1.0,65,0.00,,,0.00,VWS V14.01,2013-02-24 11:30:00,
2013-02-24 04:34:00,38.8,28.1,29.81,SSW,208,1.0,1.0,65,0.00,,,0.00,VWS V14.01,2013-02-24 11:34:00,
2013-02-24 04:35:00,38.8,28.1,29.81,SSW,208,1.0,2.0,65,0.00,,,0.00,VWS V14.01,2013-02-24 11:35:00,
2013-02-24 04:39:00,39.0,28.2,29.82,SSW,208,0.0,2.0,65,0.00,,,0.00,VWS V14.01,2013-02-24 11:39:00,
2013-02-24 04:40:00,39.0,28.2,29.82,SSW,208,0.0,2.0,65,0.00,,,0.00,VWS V14.01,2013-02-24 11:40:00,
2013-02-24 04:44:00,39.1,28.3,29.82,SSW,208,0.0,0.0,65,0.00,,,0.00,VWS V14.01,2013-02-24 11:44:00,
2013-02-24 04:45:00,39.1,28.3,29.82,SSW,208,0.0,0.0,65,0.00,,,0.00,VWS V14.01,2013-02-24 11:45:00,
2013-02-24 04:49:00,39.3,28.2,29.82,SSW,208,0.0,2.0,64,0.00,,,0.00,VWS V14.01,2013-02-24 11:49:00,
2013-02-24 04:50:00,39.3,28.2,29.83,SSW,208,0.0,2.0,64,0.00,,,0.00,VWS V14.01,2013-02-24 11:50:00,
2013-02-24 04:54:00,39.5,28.4,29.83,SSW,208,0.0,1.0,64,0.00,,,0.00,VWS V14.01,2013-02-24 11:54:00,
2013-02-24 04:55:00,39.5,28.4,29.82,SSW,208,0.0,1.0,64,0.00,,,0.00,VWS V14.01,2013-02-24 11:55:00,
2013-02-24 04:59:00,39.6,28.1,29.83,SSW,208,0.0,1.0,63,0.00,,,0.00,VWS V14.01,2013-02-24 11:59:00,
2013-02-24 05:00:00,39.7,28.1,29.82,SSW,208,0.0,1.0,63,0.00,,,0.00,VWS V14.01,2013-02-24 12:00:00,
2013-02-24 05:04:00,39.7,28.1,29.83,SSW,208,1.0,3.0,63,0.00,,,0.00,VWS V14.01,2013-02-24 12:04:00,
2013-02-24 05:05:00,39.8,28.2,29.83,SSW,208,0.0,3.0,63,0.00,,,0.00,VWS V14.01,2013-02-24 12:05:00,
2013-02-24 05:09:00,40.0,28.4,29.83,SSW,208,0.0,1.0,63,0.00,,,0.00,VWS V14.01,2013-02-24 12:09:00,
2013-02-24 05:10:00,40.0,28.4,29.83,SSW,208,0.0,1.0,63,0.00,,,0.00,VWS V14.01,2013-02-24 12:10:00,
2013-02-24 05:14:00,40.3,28.7,29.83,SSW,208,0.0,1.0,63,0.00,,,0.00,VWS V14.01,2013-02-24 12:14:00,
2013-02-24 05:15:00,40.4,28.8,29.83,SSW,208,0.0,1.0,63,0.00,,,0.00,VWS V14.01,2013-02-24 12:15:00,
2013-02-24 05:19:00,40.5,28.9,29.83,SSW,208,0.0,1.0,63,0.00,,,0.00,VWS V14.01,2013-02-24 12:19:00,
2013-02-24 05:20:00,40.5,28.9,29.83,SSW,208,0.0,1.0,63,0.00,,,0.00,VWS V14.01,2013-02-24 12:20:00,
2013-02-24 05:24:00,40.7,28.7,29.83,SSW,208,0.0,4.0,62,0.00,,,0.00,VWS V14.01,2013-02-24 12:24:00,
2013-02-24 05:25:00,40.7,28.7,29.83,SSW,208,0.0,4.0,62,0.00,,,0.00,VWS V14.01,2013-02-24 12:25:00,
2013-02-24 05:29:00,41.0,28.6,29.83,SSW,208,0.0,5.0,61,0.00,,,0.00,VWS V14.01,2013-02-24 12:29:00,
2013-02-24 05:30:00,41.1,28.7,29.83,SSW,208,0.0,5.0,61,0.00,,,0.00,VWS V14.01,2013-02-24 12:30:00,
2013-02-24 05:35:00,41.3,28.9,29.83,SSW,208,0.0,2.0,61,0.00,,,0.00,VWS V14.01,2013-02-24 12:35:00,
2013-02-24 05:40:00,41.6,29.2,29.83,SSW,208,0.0,1.0,61,0.00,,,0.00,VWS V14.01,2013-02-24 12:40:00,
2013-02-24 05:45:00,41.8,29.4,29.84,SSW,208,0.0,0.0,61,0.00,,,0.00,VWS V14.01,2013-02-24 12:45:00,
2013-02-24 05:50:00,42.0,29.5,29.84,SSW,208,0.0,2.0,61,0.00,,,0.00,VWS V14.01,2013-02-24 12:50:00,
2013-02-24 05:55:00,42.1,29.2,29.84,SSW,208,1.0,2.0,60,0.00,,,0.00,VWS V14.01,2013-02-24 12:55:00,
2013-02-24 06:00:00,42.2,29.7,29.84,SSW,208,0.0,2.0,61,0.00,,,0.00,VWS V14.01,2013-02-24 13:00:00,
2013-02-24 06:05:00,42.0,29.5,29.84,SSW,208,3.0,3.0,61,0.00,,,0.00,VWS V14.01,2013-02-24 13:05:00,
2013-02-24 06:10:00,41.7,29.3,29.84,SSW,208,2.0,5.0,61,0.00,,,0.00,VWS V14.01,2013-02-24 13:10:00,
2013-02-24 06:15:00,41.4,29.4,29.84,SSW,208,2.0,4.0,62,0.00,,,0.00,VWS V14.01,2013-02-24 13:15:00,
2013-02-24 06:20:00,41.1,29.9,29.84,SSW,208,4.0,4.0,64,0.00,,,0.00,VWS V14.01,2013-02-24 13:20:00,
2013-02-24 06:25:00,40.6,29.8,29.85,SSW,208,4.0,7.0,65,0.00,,,0.00,VWS V14.01,2013-02-24 13:25:00,
2013-02-24 06:30:00,40.3,29.9,29.85,SSW,208,5.0,8.0,66,0.00,,,0.00,VWS V14.01,2013-02-24 13:30:00,
2013-02-24 06:35:00,40.1,30.0,29.85,SSW,208,3.0,7.0,67,0.00,,,0.00,VWS V14.01,2013-02-24 13:35:00,
2013-02-24 06:40:00,40.1,30.4,29.85,SSW,208,0.0,7.0,68,0.00,,,0.00,VWS V14.01,2013-02-24 13:40:00,
2013-02-24 06:45:00,40.1,30.0,29.85,SSW,208,0.0,1.0,67,0.00,,,0.00,VWS V14.01,2013-02-24 13:45:00,
2013-02-24 06:50:00,40.1,30.4,29.85,SSW,208,0.0,1.0,68,0.00,,,0.00,VWS V14.01,2013-02-24 13:50:00,
2013-02-24 06:55:00,40.1,30.4,29.86,SSW,208,0.0,0.0,68,0.00,,,0.00,VWS V14.01,2013-02-24 13:55:00,
2013-02-24 07:00:00,40.0,30.7,29.86,SSW,208,0.0,1.0,69,0.00,,,0.00,VWS V14.01,2013-02-24 14:00:00,
2013-02-24 07:05:00,39.9,30.6,29.86,SSW,208,1.0,1.0,69,0.00,,,0.00,VWS V14.01,2013-02-24 14:05:00,
2013-02-24 07:10:00,39.8,30.5,29.87,SSW,208,2.0,3.0,69,0.00,,,0.00,VWS V14.01,2013-02-24 14:10:00,
2013-02-24 07:15:00,39.7,30.7,29.87,SSW,208,0.0,2.0,70,0.00,,,0.00,VWS V14.01,2013-02-24 14:15:00,
2013-02-24 07:20:00,39.6,30.6,29.87,SSW,208,3.0,3.0,70,0.00,,,0.00,VWS V14.01,2013-02-24 14:20:00,
2013-02-24 07:25:00,39.5,30.9,29.86,SSW,208,0.0,3.0,71,0.00,,,0.00,VWS V14.01,2013-02-24 14:25:00,
2013-02-24 07:30:00,39.2,30.6,29.86,SSW,208,1.0,5.0,71,0.00,,,0.00,VWS V14.01,2013-02-24 14:30:00,
2013-02-24 07:35:00,39.1,30.9,29.86,SSW,208,0.0,2.0,72,0.00,,,0.00,VWS V14.01,2013-02-24 14:35:00,
2013-02-24 07:40:00,39.0,30.8,29.86,SSW,208,1.0,4.0,72,0.00,,,0.00,VWS V14.01,2013-02-24 14:40:00,
2013-02-24 07:45:00,39.1,30.9,29.86,SSW,208,3.0,3.0,72,0.00,,,0.00,VWS V14.01,2013-02-24 14:45:00,
2013-02-24 07:50:00,39.0,30.8,29.86,SSW,208,0.0,2.0,72,0.00,,,0.00,VWS V14.01,2013-02-24 14:50:00,
2013-02-24 07:55:00,39.1,30.9,29.86,SSW,208,0.0,2.0,72,0.00,,,0.00,VWS V14.01,2013-02-24 14:55:00,
2013-02-24 08:00:00,39.2,31.0,29.86,SSW,208,1.0,3.0,72,0.00,,,0.00,VWS V14.01,2013-02-24 15:00:00,
2013-02-24 08:05:00,39.3,31.0,29.87,SSW,208,2.0,2.0,72,0.00,,,0.00,VWS V14.01,2013-02-24 15:05:00,
2013-02-24 08:10:00,39.5,31.2,29.88,SSW,208,3.0,7.0,72,0.00,,,0.00,VWS V14.01,2013-02-24 15:10:00,
2013-02-24 08:15:00,39.6,31.0,29.88,WSW,244,2.0,9.0,71,0.00,,,0.00,VWS V14.01,2013-02-24 15:15:00,
2013-02-24 08:20:00,39.6,30.6,29.89,SW,224,6.0,10.0,70,0.00,,,0.00,VWS V14.01,2013-02-24 15:20:00,
2013-02-24 08:25:00,39.9,30.2,29.89,SW,227,2.0,12.0,68,0.00,,,0.00,VWS V14.01,2013-02-24 15:25:00,
2013-02-24 08:30:00,40.1,29.7,29.89,SW,234,4.0,8.0,66,0.00,,,0.00,VWS V14.01,2013-02-24 15:30:00,
2013-02-24 08:35:00,40.3,28.7,29.89,West,261,5.0,9.0,63,0.00,,,0.00,VWS V14.01,2013-02-24 15:35:00,
2013-02-24 08:40:00,40.5,27.7,29.89,WNW,286,9.0,13.0,60,0.00,,,0.00,VWS V14.01,2013-02-24 15:40:00,
2013-02-24 08:45:00,40.6,26.6,29.89,WNW,284,9.0,18.0,57,0.00,,,0.00,VWS V14.01,2013-02-24 15:45:00,
2013-02-24 08:50:00,40.7,26.7,29.90,WNW,286,6.0,13.0,57,0.00,,,0.00,VWS V14.01,2013-02-24 15:50:00,
2013-02-24 08:55:00,40.7,25.8,29.90,WNW,298,9.0,19.0,55,0.00,,,0.00,VWS V14.01,2013-02-24 15:55:00,
2013-02-24 09:00:00,40.8,25.9,29.90,WNW,287,5.0,13.0,55,0.00,,,0.00,VWS V14.01,2013-02-24 16:00:00,
2013-02-24 09:05:00,41.6,26.2,29.90,WSW,245,9.0,17.0,54,0.00,,,0.00,VWS V14.01,2013-02-24 16:05:00,
2013-02-24 09:10:00,42.3,25.9,29.90,West,267,12.0,17.0,52,0.00,,,0.00,VWS V14.01,2013-02-24 16:10:00,
2013-02-24 09:15:00,42.8,26.4,29.90,West,261,4.0,13.0,52,0.00,,,0.00,VWS V14.01,2013-02-24 16:15:00,
2013-02-24 09:20:00,43.3,25.9,29.90,NW,306,5.0,9.0,50,0.00,,,0.00,VWS V14.01,2013-02-24 16:20:00,
2013-02-24 09:25:00,43.4,26.0,29.90,WNW,288,7.0,14.0,50,0.00,,,0.00,VWS V14.01,2013-02-24 16:25:00,
2013-02-24 09:30:00,43.6,26.2,29.90,West,270,6.0,13.0,50,0.00,,,0.00,VWS V14.01,2013-02-24 16:30:00,
2013-02-24 09:35:00,44.0,26.1,29.90,West,261,3.0,13.0,49,0.00,,,0.00,VWS V14.01,2013-02-24 16:35:00,
2013-02-24 09:40:00,44.3,26.4,29.91,WSW,242,5.0,13.0,49,0.00,,,0.00,VWS V14.01,2013-02-24 16:40:00,
2013-02-24 09:45:00,44.8,25.8,29.91,WNW,289,6.0,12.0,47,0.00,,,0.00,VWS V14.01,2013-02-24 16:45:00,
2013-02-24 09:50:00,44.6,25.1,29.91,West,279,5.0,13.0,46,0.00,,,0.00,VWS V14.01,2013-02-24 16:50:00,
2013-02-24 09:55:00,44.9,25.9,29.91,WSW,248,5.0,10.0,47,0.00,,,0.00,VWS V14.01,2013-02-24 16:55:00,
2013-02-24 10:00:00,45.6,26.0,29.91,WSW,249,3.0,8.0,46,0.00,,,0.00,VWS V14.01,2013-02-24 17:00:00,
2013-02-24 10:05:00,45.6,25.0,29.92,WNW,282,3.0,12.0,44,0.00,,,0.00,VWS V14.01,2013-02-24 17:05:00,
2013-02-24 10:10:00,45.7,25.0,29.92,West,280,7.0,17.0,44,0.00,,,0.00,VWS V14.01,2013-02-24 17:10:00,
2013-02-24 10:15:00,45.8,23.5,29.92,West,268,5.0,13.0,41,0.00,,,0.00,VWS V14.01,2013-02-24 17:15:00,
2013-02-24 10:20:00,45.3,23.0,29.92,West,279,2.0,14.0,41,0.00,,,0.00,VWS V14.01,2013-02-24 17:20:00,
2013-02-24 10:25:00,45.8,22.9,29.92,WNW,282,7.0,14.0,40,0.00,,,0.00,VWS V14.01,2013-02-24 17:25:00,
2013-02-24 10:30:00,45.8,22.3,29.92,West,271,10.0,15.0,39,0.00,,,0.00,VWS V14.01,2013-02-24 17:30:00,
2013-02-24 10:35:00,46.2,23.2,29.93,WSW,248,5.0,10.0,40,0.00,,,0.00,VWS V14.01,2013-02-24 17:35:00,
2013-02-24 10:40:00,46.0,23.6,29.92,West,280,5.0,15.0,41,0.00,,,0.00,VWS V14.01,2013-02-24 17:40:00,
2013-02-24 10:45:00,45.7,22.8,29.93,WSW,240,7.0,18.0,40,0.00,,,0.00,VWS V14.01,2013-02-24 17:45:00,
2013-02-24 10:50:00,45.4,22.5,29.93,West,273,6.0,16.0,40,0.00,,,0.00,VWS V14.01,2013-02-24 17:50:00,
2013-02-24 10:55:00,45.5,21.4,29.93,WNW,290,3.0,14.0,38,0.00,,,0.00,VWS V14.01,2013-02-24 17:55:00,
2013-02-24 11:00:00,46.1,21.9,29.93,WNW,290,11.0,15.0,38,0.00,,,0.00,VWS V14.01,2013-02-24 18:00:00,
2013-02-24 11:05:00,46.4,22.8,29.93,West,265,4.0,17.0,39,0.00,,,0.00,VWS V14.01,2013-02-24 18:05:00,
2013-02-24 11:10:00,46.7,23.7,29.93,NW,315,7.0,14.0,40,0.00,,,0.00,VWS V14.01,2013-02-24 18:10:00,
2013-02-24 11:15:00,47.1,23.4,29.93,West,281,5.0,13.0,39,0.00,,,0.00,VWS V14.01,2013-02-24 18:15:00,
2013-02-24 11:20:00,47.2,22.9,29.94,WNW,298,9.0,14.0,38,0.00,,,0.00,VWS V14.01,2013-02-24 18:20:00,
2013-02-24 11:25:00,47.3,23.0,29.93,South,191,11.0,13.0,38,0.00,,,0.00,VWS V14.01,2013-02-24 18:25:00,
2013-02-24 11:30:00,47.1,22.2,29.94,NNW,345,2.0,15.0,37,0.00,,,0.00,VWS V14.01,2013-02-24 18:30:00,
2013-02-24 11:35:00,47.0,21.5,29.94,NW,317,1.0,10.0,36,0.00,,,0.00,VWS V14.01,2013-02-24 18:35:00,
2013-02-24 11:40:00,46.8,21.9,29.93,NW,315,5.0,12.0,37,0.00,,,0.00,VWS V14.01,2013-02-24 18:40:00,
2013-02-24 11:45:00,46.8,21.3,29.94,WNW,282,4.0,15.0,36,0.00,,,0.00,VWS V14.01,2013-02-24 18:45:00,
2013-02-24 11:50:00,46.5,20.3,29.93,West,279,11.0,23.0,35,0.00,,,0.00,VWS V14.01,2013-02-24 18:50:00,
2013-02-24 11:55:00,46.1,19.3,29.93,West,279,12.0,16.0,34,0.00,,,0.00,VWS V14.01,2013-02-24 18:55:00,
2013-02-24 12:00:00,47.4,19.8,29.93,SW,224,8.0,12.0,33,0.00,,,0.00,VWS V14.01,2013-02-24 19:00:00,
2013-02-24 12:05:00,47.6,18.5,29.93,West,267,8.0,17.0,31,0.00,,,0.00,VWS V14.01,2013-02-24 19:05:00,
2013-02-24 12:10:00,47.7,17.8,29.93,NW,312,5.0,15.0,30,0.00,,,0.00,VWS V14.01,2013-02-24 19:10:00,
2013-02-24 12:15:00,47.8,18.6,29.93,WNW,282,9.0,13.0,31,0.00,,,0.00,VWS V14.01,2013-02-24 19:15:00,
2013-02-24 12:20:00,48.4,17.6,29.92,West,269,9.0,15.0,29,0.00,,,0.00,VWS V14.01,2013-02-24 19:20:00,
2013-02-24 12:25:00,48.1,16.5,29.92,West,281,6.0,16.0,28,0.00,,,0.00,VWS V14.01,2013-02-24 19:25:00,
2013-02-24 12:30:00,48.0,16.5,29.92,NNW,336,13.0,14.0,28,0.00,,,0.00,VWS V14.01,2013-02-24 19:30:00,
2013-02-24 12:35:00,47.7,14.5,29.92,NNW,336,6.0,15.0,26,0.00,,,0.00,VWS V14.01,2013-02-24 19:35:00,
2013-02-24 12:40:00,47.7,15.4,29.92,NW,315,6.0,12.0,27,0.00,,,0.00,VWS V14.01,2013-02-24 19:40:00,
2013-02-24 12:45:00,47.6,12.6,29.92,North,355,8.0,19.0,24,0.00,,,0.00,VWS V14.01,2013-02-24 19:45:00,
2013-02-24 12:50:00,47.8,12.8,29.92,South,186,9.0,22.0,24,0.00,,,0.00,VWS V14.01,2013-02-24 19:50:00,
2013-02-24 12:55:00,48.3,13.2,29.92,WNW,287,3.0,22.0,24,0.00,,,0.00,VWS V14.01,2013-02-24 19:55:00,
2013-02-24 13:00:00,47.6,11.6,29.92,West,269,5.0,18.0,23,0.00,,,0.00,VWS V14.01,2013-02-24 20:00:00,
2013-02-24 13:05:00,48.3,14.1,29.92,SW,232,6.0,14.0,25,0.00,,,0.00,VWS V14.01,2013-02-24 20:05:00,
2013-02-24 13:10:00,48.8,13.6,29.92,WNW,285,5.0,23.0,24,0.00,,,0.00,VWS V14.01,2013-02-24 20:10:00,
2013-02-24 13:15:00,48.3,12.2,29.91,NW,323,9.0,20.0,23,0.00,,,0.00,VWS V14.01,2013-02-24 20:15:00,
2013-02-24 13:20:00,47.9,10.9,29.92,WNW,289,3.0,21.0,22,0.00,,,0.00,VWS V14.01,2013-02-24 20:20:00,
2013-02-24 13:25:00,47.8,11.8,29.92,NW,315,9.0,14.0,23,0.00,,,0.00,VWS V14.01,2013-02-24 20:25:00,
2013-02-24 13:30:00,47.5,11.6,29.92,NNE,30,17.0,21.0,23,0.00,,,0.00,VWS V14.01,2013-02-24 20:30:00,
2013-02-24 13:35:00,47.4,11.5,29.92,North,355,7.0,19.0,23,0.00,,,0.00,VWS V14.01,2013-02-24 20:35:00,
2013-02-24 13:40:00,47.5,10.6,29.92,NW,319,15.0,17.0,22,0.00,,,0.00,VWS V14.01,2013-02-24 20:40:00,
2013-02-24 13:45:00,47.4,11.5,29.92,West,263,4.0,17.0,23,0.00,,,0.00,VWS V14.01,2013-02-24 20:45:00,
2013-02-24 13:50:00,47.5,11.6,29.93,WNW,300,5.0,15.0,23,0.00,,,0.00,VWS V14.01,2013-02-24 20:50:00,
2013-02-24 13:55:00,47.2,10.3,29.93,NNW,335,13.0,22.0,22,0.00,,,0.00,VWS V14.01,2013-02-24 20:55:00,
2013-02-24 14:00:00,46.8,10.0,29.93,NNW,329,6.0,18.0,22,0.00,,,0.00,VWS V14.01,2013-02-24 21:00:00,
2013-02-24 14:05:00,46.9,10.1,29.93,West,281,7.0,15.0,22,0.00,,,0.00,VWS V14.01,2013-02-24 21:05:00,
2013-02-24 14:10:00,47.0,10.1,29.93,West,279,5.0,12.0,22,0.00,,,0.00,VWS V14.01,2013-02-24 21:10:00,
2013-02-24 14:11:00,47.0,10.1,29.93,West,279,7.0,12.0,22,0.00,,,0.00,VWS V14.01,2013-02-24 21:11:00,
2013-02-24 14:15:00,48.1,10.0,29.93,NW,318,10.0,14.0,21,0.00,,,0.00,VWS V14.01,2013-02-24 21:15:00,
2013-02-24 14:16:00,48.1,10.0,29.93,NNW,336,8.0,14.0,21,0.00,,,0.00,VWS V14.01,2013-02-24 21:16:00,
2013-02-24 14:20:00,48.0,7.7,29.93,West,268,5.0,13.0,19,0.00,,,0.00,VWS V14.01,2013-02-24 21:20:00,
2013-02-24 14:21:00,48.1,7.8,29.93,NNW,332,9.0,13.0,19,0.00,,,0.00,VWS V14.01,2013-02-24 21:21:00,
2013-02-24 14:25:00,48.2,9.0,29.93,NNW,329,13.0,19.0,20,0.00,,,0.00,VWS V14.01,2013-02-24 21:25:00,
2013-02-24 14:26:00,48.2,9.0,29.93,NNW,329,13.0,19.0,20,0.00,,,0.00,VWS V14.01,2013-02-24 21:26:00,
2013-02-24 14:30:00,47.9,7.6,29.94,West,267,8.0,21.0,19,0.00,,,0.00,VWS V14.01,2013-02-24 21:30:00,
2013-02-24 14:31:00,47.9,7.6,29.94,West,267,8.0,21.0,19,0.00,,,0.00,VWS V14.01,2013-02-24 21:31:00,
2013-02-24 14:35:00,47.8,7.6,29.94,NNW,327,5.0,14.0,19,0.00,,,0.00,VWS V14.01,2013-02-24 21:35:00,
2013-02-24 14:36:00,47.8,7.6,29.94,NNW,327,5.0,14.0,19,0.00,,,0.00,VWS V14.01,2013-02-24 21:36:00,
2013-02-24 14:40:00,47.9,7.6,29.94,NNW,342,9.0,14.0,19,0.00,,,0.00,VWS V14.01,2013-02-24 21:40:00,
2013-02-24 14:41:00,47.9,7.6,29.94,NNW,342,9.0,14.0,19,0.00,,,0.00,VWS V14.01,2013-02-24 21:41:00,
2013-02-24 14:45:00,48.1,6.6,29.94,NNW,348,6.0,16.0,18,0.00,,,0.00,VWS V14.01,2013-02-24 21:45:00,
2013-02-24 14:46:00,48.1,6.6,29.94,NNW,348,6.0,16.0,18,0.00,,,0.00,VWS V14.01,2013-02-24 21:46:00,
2013-02-24 14:50:00,48.3,6.8,29.94,NW,323,14.0,15.0,18,0.00,,,0.00,VWS V14.01,2013-02-24 21:50:00,
2013-02-24 14:51:00,48.3,6.8,29.94,NW,323,14.0,15.0,18,0.00,,,0.00,VWS V14.01,2013-02-24 21:51:00,
2013-02-24 14:55:00,48.0,6.5,29.94,NW,315,8.0,17.0,18,0.00,,,0.00,VWS V14.01,2013-02-24 21:55:00,
2013-02-24 14:56:00,48.0,6.5,29.94,NW,315,8.0,17.0,18,0.00,,,0.00,VWS V14.01,2013-02-24 21:56:00,
2013-02-24 15:00:00,47.9,8.8,29.95,NNW,336,13.0,19.0,20,0.00,,,0.00,VWS V14.01,2013-02-24 22:00:00,
2013-02-24 15:01:00,47.9,8.8,29.95,NNW,336,13.0,19.0,20,0.00,,,0.00,VWS V14.01,2013-02-24 22:01:00,
2013-02-24 15:05:00,47.6,7.4,29.95,SW,234,4.0,22.0,19,0.00,,,0.00,VWS V14.01,2013-02-24 22:05:00,
2013-02-24 15:06:00,47.6,7.4,29.95,SW,234,4.0,22.0,19,0.00,,,0.00,VWS V14.01,2013-02-24 22:06:00,
2013-02-24 15:10:00,47.9,6.4,29.95,NW,304,10.0,16.0,18,0.00,,,0.00,VWS V14.01,2013-02-24 22:10:00,
2013-02-24 15:11:00,47.9,6.4,29.95,NW,304,10.0,16.0,18,0.00,,,0.00,VWS V14.01,2013-02-24 22:11:00,
2013-02-24 15:15:00,47.9,6.4,29.96,West,279,9.0,18.0,18,0.00,,,0.00,VWS V14.01,2013-02-24 22:15:00,
2013-02-24 15:16:00,47.9,6.4,29.96,West,279,9.0,18.0,18,0.00,,,0.00,VWS V14.01,2013-02-24 22:16:00,
2013-02-24 15:20:00,48.1,6.6,29.96,NNW,327,16.0,20.0,18,0.00,,,0.00,VWS V14.01,2013-02-24 22:20:00,
2013-02-24 15:21:00,48.1,6.6,29.96,NNW,327,16.0,20.0,18,0.00,,,0.00,VWS V14.01,2013-02-24 22:21:00,
2013-02-24 15:25:00,47.8,6.4,29.96,North,355,8.0,21.0,18,0.00,,,0.00,VWS V14.01,2013-02-24 22:25:00,
2013-02-24 15:26:00,47.8,6.4,29.96,North,355,8.0,21.0,18,0.00,,,0.00,VWS V14.01,2013-02-24 22:26:00,
2013-02-24 15:30:00,47.9,7.6,29.96,NW,308,2.0,15.0,19,0.00,,,0.00,VWS V14.01,2013-02-24 22:30:00,
2013-02-24 15:31:00,47.9,7.6,29.96,NW,308,2.0,15.0,19,0.00,,,0.00,VWS V14.01,2013-02-24 22:31:00,
2013-02-24 15:35:00,48.1,6.6,29.97,NW,313,10.0,24.0,18,0.00,,,0.00,VWS V14.01,2013-02-24 22:35:00,
2013-02-24 15:36:00,48.1,6.6,29.97,NW,313,10.0,24.0,18,0.00,,,0.00,VWS V14.01,2013-02-24 22:36:00,
2013-02-24 15:40:00,48.0,6.5,29.96,NW,320,8.0,22.0,18,0.00,,,0.00,VWS V14.01,2013-02-24 22:40:00,
2013-02-24 15:41:00,48.0,6.5,29.96,NW,320,8.0,22.0,18,0.00,,,0.00,VWS V14.01,2013-02-24 22:41:00,
2013-02-24 15:45:00,47.9,6.4,29.97,North,355,13.0,21.0,18,0.00,,,0.00,VWS V14.01,2013-02-24 22:45:00,
2013-02-24 15:46:00,47.9,6.4,29.97,North,355,13.0,21.0,18,0.00,,,0.00,VWS V14.01,2013-02-24 22:46:00,
2013-02-24 15:50:00,48.0,7.7,29.97,WNW,296,17.0,21.0,19,0.00,,,0.00,VWS V14.01,2013-02-24 22:50:00,
2013-02-24 15:51:00,48.0,7.7,29.97,WNW,296,17.0,21.0,19,0.00,,,0.00,VWS V14.01,2013-02-24 22:51:00,
2013-02-24 15:55:00,47.9,7.6,29.97,WNW,302,17.0,22.0,19,0.00,,,0.00,VWS V14.01,2013-02-24 22:55:00,
2013-02-24 15:56:00,48.0,7.7,29.96,WNW,291,10.0,17.0,19,0.00,,,0.00,VWS V14.01,2013-02-24 22:56:00,
2013-02-24 16:00:00,48.0,6.5,29.97,West,268,7.0,17.0,18,0.00,,,0.00,VWS V14.01,2013-02-24 23:00:00,
2013-02-24 16:01:00,48.0,6.5,29.97,WNW,302,6.0,7.0,18,0.00,,,0.00,VWS V14.01,2013-02-24 23:01:00,
2013-02-24 16:05:00,48.0,7.7,29.97,NW,315,9.0,15.0,19,0.00,,,0.00,VWS V14.01,2013-02-24 23:05:00,
2013-02-24 16:06:00,48.1,7.8,29.97,NNW,329,8.0,12.0,19,0.00,,,0.00,VWS V14.01,2013-02-24 23:06:00,
2013-02-24 16:10:00,48.0,7.7,29.98,North,360,7.0,17.0,19,0.00,,,0.00,VWS V14.01,2013-02-24 23:10:00,
2013-02-24 16:11:00,48.0,7.7,29.97,NNW,340,11.0,11.0,19,0.00,,,0.00,VWS V14.01,2013-02-24 23:11:00,
2013-02-24 16:15:00,48.1,7.8,29.98,North,355,18.0,18.0,19,0.00,,,0.00,VWS V14.01,2013-02-24 23:15:00,
2013-02-24 16:16:00,48.1,7.8,29.98,NW,312,13.0,18.0,19,0.00,,,0.00,VWS V14.01,2013-02-24 23:16:00,
2013-02-24 16:20:00,48.0,7.7,29.98,North,360,11.0,18.0,19,0.00,,,0.00,VWS V14.01,2013-02-24 23:20:00,
2013-02-24 16:21:00,47.9,7.6,29.98,NNW,329,10.0,11.0,19,0.00,,,0.00,VWS V14.01,2013-02-24 23:21:00,
2013-02-24 16:25:00,47.8,8.7,29.98,NW,316,14.0,19.0,20,0.00,,,0.00,VWS V14.01,2013-02-24 23:25:00,
2013-02-24 16:26:00,47.8,8.7,29.98,NW,309,9.0,14.0,20,0.00,,,0.00,VWS V14.01,2013-02-24 23:26:00,
2013-02-24 16:30:00,47.7,7.5,29.98,NW,320,16.0,17.0,19,0.00,,,0.00,VWS V14.01,2013-02-24 23:30:00,
2013-02-24 16:31:00,47.7,6.3,29.98,NNW,327,10.0,16.0,18,0.00,,,0.00,VWS V14.01,2013-02-24 23:31:00,
2013-02-24 16:35:00,47.5,7.3,29.98,NW,317,9.0,16.0,19,0.00,,,0.00,VWS V14.01,2013-02-24 23:35:00,
2013-02-24 16:36:00,47.5,7.3,29.99,NW,324,15.0,15.0,19,0.00,,,0.00,VWS V14.01,2013-02-24 23:36:00,
2013-02-24 16:40:00,47.7,7.5,29.99,North,5,10.0,17.0,19,0.00,,,0.00,VWS V14.01,2013-02-24 23:40:00,
2013-02-24 16:41:00,47.7,7.5,29.98,NW,318,10.0,13.0,19,0.00,,,0.00,VWS V14.01,2013-02-24 23:41:00,
2013-02-24 16:45:00,47.7,6.3,29.99,NW,325,13.0,21.0,18,0.00,,,0.00,VWS V14.01,2013-02-24 23:45:00,
2013-02-24 16:46:00,47.7,6.3,29.99,NW,326,10.0,13.0,18,0.00,,,0.00,VWS V14.01,2013-02-24 23:46:00,
2013-02-24 16:50:00,47.7,8.6,29.99,WNW,288,4.0,15.0,20,0.00,,,0.00,VWS V14.01,2013-02-24 23:50:00,
2013-02-24 16:51:00,47.8,8.7,29.99,WNW,292,4.0,4.0,20,0.00,,,0.00,VWS V14.01,2013-02-24 23:51:00,
2013-02-24 16:55:00,47.9,7.6,29.99,NNW,335,12.0,12.0,19,0.00,,,0.00,VWS V14.01,2013-02-24 23:55:00,
2013-02-24 16:56:00,47.9,7.6,29.99,NNW,329,7.0,13.0,19,0.00,,,0.00,VWS V14.01,2013-02-24 23:56:00,
2013-02-24 17:00:00,47.9,7.6,30.00,NW,318,13.0,17.0,19,0.00,,,0.00,VWS V14.01,2013-02-25 00:00:00,
2013-02-24 17:01:00,47.8,7.6,30.00,NW,322,10.0,13.0,19,0.00,,,0.00,VWS V14.01,2013-02-25 00:01:00,
2013-02-24 17:05:00,47.6,7.4,30.00,NNW,329,7.0,16.0,19,0.00,,,0.00,VWS V14.01,2013-02-25 00:05:00,
2013-02-24 17:06:00,47.5,7.3,30.00,NW,323,6.0,8.0,19,0.00,,,0.00,VWS V14.01,2013-02-25 00:06:00,
2013-02-24 17:10:00,47.4,7.2,30.00,NW,323,4.0,14.0,19,0.00,,,0.00,VWS V14.01,2013-02-25 00:10:00,
2013-02-24 17:11:00,47.4,8.4,30.00,North,9,11.0,11.0,20,0.00,,,0.00,VWS V14.01,2013-02-25 00:11:00,
2013-02-24 17:15:00,47.4,7.2,30.00,NW,309,11.0,19.0,19,0.00,,,0.00,VWS V14.01,2013-02-25 00:15:00,
2013-02-24 17:16:00,47.4,7.2,30.00,NW,307,11.0,14.0,19,0.00,,,0.00,VWS V14.01,2013-02-25 00:16:00,
2013-02-24 17:20:00,47.3,8.3,30.01,NNW,331,9.0,16.0,20,0.00,,,0.00,VWS V14.01,2013-02-25 00:20:00,
2013-02-24 17:21:00,47.3,8.3,30.01,NNW,336,14.0,14.0,20,0.00,,,0.00,VWS V14.01,2013-02-25 00:21:00,
2013-02-24 17:25:00,47.0,6.9,30.01,NW,311,10.0,18.0,19,0.00,,,0.00,VWS V14.01,2013-02-25 00:25:00,
2013-02-24 17:26:00,47.0,6.9,30.01,NNW,340,9.0,10.0,19,0.00,,,0.00,VWS V14.01,2013-02-25 00:26:00,
2013-02-24 17:30:00,46.9,6.8,30.01,NW,304,10.0,17.0,19,0.00,,,0.00,VWS V14.01,2013-02-25 00:30:00,
2013-02-24 17:31:00,46.9,6.8,30.01,NNW,338,14.0,14.0,19,0.00,,,0.00,VWS V14.01,2013-02-25 00:31:00,
2013-02-24 17:35:00,46.8,6.7,30.01,NW,310,12.0,16.0,19,0.00,,,0.00,VWS V14.01,2013-02-25 00:35:00,
2013-02-24 17:36:00,46.8,6.7,30.01,NW,325,8.0,12.0,19,0.00,,,0.00,VWS V14.01,2013-02-25 00:36:00,
2013-02-24 17:40:00,46.7,5.5,30.01,NW,315,14.0,15.0,18,0.00,,,0.00,VWS V14.01,2013-02-25 00:40:00,
2013-02-24 17:41:00,46.7,5.5,30.02,NW,313,11.0,14.0,18,0.00,,,0.00,VWS V14.01,2013-02-25 00:41:00,
2013-02-24 17:45:00,46.5,6.5,30.02,North,350,8.0,14.0,19,0.00,,,0.00,VWS V14.01,2013-02-25 00:45:00,
2013-02-24 17:46:00,46.5,6.5,30.02,NNW,328,4.0,8.0,19,0.00,,,0.00,VWS V14.01,2013-02-25 00:46:00,
2013-02-24 17:50:00,46.4,7.5,30.02,NW,320,7.0,11.0,20,0.00,,,0.00,VWS V14.01,2013-02-25 00:50:00,
2013-02-24 17:51:00,46.4,7.5,30.02,NNW,338,12.0,12.0,20,0.00,,,0.00,VWS V14.01,2013-02-25 00:51:00,
2013-02-24 17:55:00,46.2,7.4,30.02,NNW,342,6.0,15.0,20,0.00,,,0.00,VWS V14.01,2013-02-25 00:55:00,
2013-02-24 17:56:00,46.2,7.4,30.02,NNW,332,7.0,10.0,20,0.00,,,0.00,VWS V14.01,2013-02-25 00:56:00,
2013-02-24 18:00:00,46.0,8.3,30.02,NNW,332,3.0,10.0,21,0.00,,,0.00,VWS V14.01,2013-02-25 01:00:00,
2013-02-24 18:01:00,46.0,8.3,30.02,NW,315,5.0,7.0,21,0.00,,,0.00,VWS V14.01,2013-02-25 01:01:00,
2013-02-24 18:05:00,45.8,8.1,30.02,NW,315,4.0,8.0,21,0.00,,,0.00,VWS V14.01,2013-02-25 01:05:00,
2013-02-24 18:06:00,45.8,8.1,30.03,NW,315,3.0,4.0,21,0.00,,,0.00,VWS V14.01,2013-02-25 01:06:00,
2013-02-24 18:10:00,45.6,7.9,30.03,NW,319,5.0,7.0,21,0.00,,,0.00,VWS V14.01,2013-02-25 01:10:00,
2013-02-24 18:11:00,45.5,8.9,30.03,NW,325,5.0,5.0,22,0.00,,,0.00,VWS V14.01,2013-02-25 01:11:00,
2013-02-24 18:15:00,45.2,8.6,30.03,NW,324,3.0,7.0,22,0.00,,,0.00,VWS V14.01,2013-02-25 01:15:00,
2013-02-24 18:16:00,45.2,8.6,30.03,NNW,329,6.0,8.0,22,0.00,,,0.00,VWS V14.01,2013-02-25 01:16:00,
2013-02-24 18:20:00,44.7,8.2,30.03,NNW,348,6.0,9.0,22,0.00,,,0.00,VWS V14.01,2013-02-25 01:20:00,
2013-02-24 18:21:00,44.7,8.2,30.03,NNW,348,5.0,6.0,22,0.00,,,0.00,VWS V14.01,2013-02-25 01:21:00,
2013-02-24 18:25:00,44.4,9.9,30.03,NW,318,3.0,6.0,24,0.00,,,0.00,VWS V14.01,2013-02-25 01:25:00,
2013-02-24 18:26:00,44.3,9.8,30.04,NW,319,2.0,3.0,24,0.00,,,0.00,VWS V14.01,2013-02-25 01:26:00,
2013-02-24 18:30:00,44.0,9.5,30.04,NNW,347,6.0,6.0,24,0.00,,,0.00,VWS V14.01,2013-02-25 01:30:00,
2013-02-24 18:31:00,44.0,9.5,30.03,NNW,347,5.0,6.0,24,0.00,,,0.00,VWS V14.01,2013-02-25 01:31:00,
2013-02-24 18:35:00,43.7,10.2,30.03,NNW,348,0.0,6.0,25,0.00,,,0.00,VWS V14.01,2013-02-25 01:35:00,
2013-02-24 18:36:00,43.8,10.3,30.03,NNW,348,1.0,1.0,25,0.00,,,0.00,VWS V14.01,2013-02-25 01:36:00,
2013-02-24 18:40:00,43.4,9.9,30.03,NNW,348,2.0,5.0,25,0.00,,,0.00,VWS V14.01,2013-02-25 01:40:00,
2013-02-24 18:41:00,43.4,9.9,30.04,NNW,348,1.0,2.0,25,0.00,,,0.00,VWS V14.01,2013-02-25 01:41:00,
2013-02-24 18:45:00,43.2,11.5,30.04,NNW,348,0.0,3.0,27,0.00,,,0.00,VWS V14.01,2013-02-25 01:45:00,
2013-02-24 18:46:00,43.2,12.3,30.04,NNW,348,0.0,0.0,28,0.00,,,0.00,VWS V14.01,2013-02-25 01:46:00,
2013-02-24 18:50:00,43.0,12.1,30.04,NNW,348,1.0,2.0,28,0.00,,,0.00,VWS V14.01,2013-02-25 01:50:00,
2013-02-24 18:51:00,43.0,12.1,30.04,NNW,348,0.0,1.0,28,0.00,,,0.00,VWS V14.01,2013-02-25 01:51:00,
2013-02-24 18:55:00,42.7,13.4,30.04,NNW,348,0.0,1.0,30,0.00,,,0.00,VWS V14.01,2013-02-25 01:55:00,
2013-02-24 18:56:00,42.6,13.4,30.04,NNW,348,0.0,0.0,30,0.00,,,0.00,VWS V14.01,2013-02-25 01:56:00,
2013-02-24 19:00:00,42.2,13.0,30.04,NNW,348,1.0,2.0,30,0.00,,,0.00,VWS V14.01,2013-02-25 02:00:00,
2013-02-24 19:01:00,42.2,13.0,30.04,NNW,348,0.0,1.0,30,0.00,,,0.00,VWS V14.01,2013-02-25 02:01:00,
2013-02-24 19:05:00,41.7,12.6,30.04,NNW,348,1.0,2.0,30,0.00,,,0.00,VWS V14.01,2013-02-25 02:05:00,
2013-02-24 19:06:00,41.7,12.6,30.04,NNW,348,0.0,2.0,30,0.00,,,0.00,VWS V14.01,2013-02-25 02:06:00,
2013-02-24 19:10:00,41.3,13.0,30.04,NNW,348,1.0,3.0,31,0.00,,,0.00,VWS V14.01,2013-02-25 02:10:00,
2013-02-24 19:11:00,41.3,13.0,30.04,NNW,348,1.0,2.0,31,0.00,,,0.00,VWS V14.01,2013-02-25 02:11:00,
2013-02-24 19:15:00,40.9,13.3,30.04,NNW,348,2.0,3.0,32,0.00,,,0.00,VWS V14.01,2013-02-25 02:15:00,
2013-02-24 19:16:00,40.9,13.3,30.04,NNW,348,2.0,3.0,32,0.00,,,0.00,VWS V14.01,2013-02-25 02:16:00,
2013-02-24 19:20:00,40.6,13.1,30.04,NNW,348,3.0,3.0,32,0.00,,,0.00,VWS V14.01,2013-02-25 02:20:00,
2013-02-24 19:21:00,40.6,13.1,30.04,NNW,348,2.0,4.0,32,0.00,,,0.00,VWS V14.01,2013-02-25 02:21:00,
2013-02-24 19:25:00,40.3,13.5,30.05,NNW,348,1.0,4.0,33,0.00,,,0.00,VWS V14.01,2013-02-25 02:25:00,
2013-02-24 19:26:00,40.3,13.5,30.05,NNW,348,2.0,2.0,33,0.00,,,0.00,VWS V14.01,2013-02-25 02:26:00,
2013-02-24 19:30:00,40.0,13.2,30.05,NNW,348,1.0,3.0,33,0.00,,,0.00,VWS V14.01,2013-02-25 02:30:00,
2013-02-24 19:31:00,40.1,13.3,30.05,NNW,348,2.0,3.0,33,0.00,,,0.00,VWS V14.01,2013-02-25 02:31:00,
2013-02-24 19:35:00,39.9,13.1,30.05,NNW,348,2.0,3.0,33,0.00,,,0.00,VWS V14.01,2013-02-25 02:35:00,
2013-02-24 19:36:00,39.9,13.1,30.05,NNW,348,0.0,2.0,33,0.00,,,0.00,VWS V14.01,2013-02-25 02:36:00,
2013-02-24 19:40:00,39.7,13.6,30.05,NNW,348,2.0,3.0,34,0.00,,,0.00,VWS V14.01,2013-02-25 02:40:00,
2013-02-24 19:41:00,39.7,13.6,30.05,NNW,348,2.0,3.0,34,0.00,,,0.00,VWS V14.01,2013-02-25 02:41:00,
2013-02-24 19:45:00,39.5,13.5,30.05,NNW,348,2.0,3.0,34,0.00,,,0.00,VWS V14.01,2013-02-25 02:45:00,
2013-02-24 19:46:00,39.5,13.5,30.05,NNW,348,0.0,2.0,34,0.00,,,0.00,VWS V14.01,2013-02-25 02:46:00,
2013-02-24 19:50:00,39.3,13.9,30.06,NNW,348,1.0,3.0,35,0.00,,,0.00,VWS V14.01,2013-02-25 02:50:00,
2013-02-24 19:51:00,39.2,13.9,30.06,NNW,348,1.0,2.0,35,0.00,,,0.00,VWS V14.01,2013-02-25 02:51:00,
2013-02-24 19:55:00,39.0,14.3,30.06,NNW,348,1.0,3.0,36,0.00,,,0.00,VWS V14.01,2013-02-25 02:55:00,
2013-02-24 19:56:00,39.0,14.3,30.06,NNW,348,0.0,1.0,36,0.00,,,0.00,VWS V14.01,2013-02-25 02:56:00,
2013-02-24 20:00:00,38.7,16.5,30.06,NNW,348,2.0,3.0,40,0.00,,,0.00,VWS V14.01,2013-02-25 03:00:00,
2013-02-24 20:01:00,38.7,16.5,30.06,NNW,348,2.0,3.0,40,0.00,,,0.00,VWS V14.01,2013-02-25 03:01:00,
2013-02-24 20:05:00,38.2,16.0,30.06,NNW,348,0.0,4.0,40,0.00,,,0.00,VWS V14.01,2013-02-25 03:05:00,
2013-02-24 20:06:00,38.2,16.0,30.06,NNW,348,2.0,2.0,40,0.00,,,0.00,VWS V14.01,2013-02-25 03:06:00,
2013-02-24 20:10:00,37.7,16.1,30.06,NNW,348,1.0,3.0,41,0.00,,,0.00,VWS V14.01,2013-02-25 03:10:00,
2013-02-24 20:11:00,37.6,16.6,30.06,NNW,348,1.0,2.0,42,0.00,,,0.00,VWS V14.01,2013-02-25 03:11:00,
2013-02-24 20:15:00,37.1,16.7,30.06,NNW,348,0.0,2.0,43,0.00,,,0.00,VWS V14.01,2013-02-25 03:15:00,
2013-02-24 20:16:00,37.1,16.7,30.07,NNW,348,2.0,2.0,43,0.00,,,0.00,VWS V14.01,2013-02-25 03:16:00,
2013-02-24 20:20:00,36.8,15.9,30.07,NNW,348,0.0,2.0,42,0.00,,,0.00,VWS V14.01,2013-02-25 03:20:00,
2013-02-24 20:21:00,36.8,15.9,30.07,NNW,348,0.0,0.0,42,0.00,,,0.00,VWS V14.01,2013-02-25 03:21:00,
2013-02-24 20:25:00,36.6,15.7,30.07,NNW,348,1.0,1.0,42,0.00,,,0.00,VWS V14.01,2013-02-25 03:25:00,
2013-02-24 20:26:00,36.5,15.6,30.06,NNW,348,0.0,1.0,42,0.00,,,0.00,VWS V14.01,2013-02-25 03:26:00,
2013-02-24 20:30:00,36.4,16.0,30.07,NNW,348,0.0,1.0,43,0.00,,,0.00,VWS V14.01,2013-02-25 03:30:00,
2013-02-24 20:31:00,36.4,16.6,30.07,NNW,348,0.0,0.0,44,0.00,,,0.00,VWS V14.01,2013-02-25 03:31:00,
2013-02-24 20:35:00,36.2,16.4,30.07,NNW,348,0.0,0.0,44,0.00,,,0.00,VWS V14.01,2013-02-25 03:35:00,
2013-02-24 20:36:00,36.2,16.9,30.07,NNW,348,0.0,0.0,45,0.00,,,0.00,VWS V14.01,2013-02-25 03:36:00,
2013-02-24 20:40:00,36.0,16.7,30.07,NNW,348,0.0,1.0,45,0.00,,,0.00,VWS V14.01,2013-02-25 03:40:00,
2013-02-24 20:41:00,35.9,16.6,30.07,NNW,348,0.0,0.0,45,0.00,,,0.00,VWS V14.01,2013-02-25 03:41:00,
2013-02-24 20:45:00,35.7,17.0,30.07,NNW,348,1.0,1.0,46,0.00,,,0.00,VWS V14.01,2013-02-25 03:45:00,
2013-02-24 20:46:00,35.6,16.9,30.07,NNW,348,1.0,1.0,46,0.00,,,0.00,VWS V14.01,2013-02-25 03:46:00,
2013-02-24 20:50:00,35.3,17.6,30.07,NNW,348,0.0,1.0,48,0.00,,,0.00,VWS V14.01,2013-02-25 03:50:00,
2013-02-24 20:51:00,35.3,17.6,30.07,NNW,348,0.0,0.0,48,0.00,,,0.00,VWS V14.01,2013-02-25 03:51:00,
2013-02-24 20:55:00,35.1,16.9,30.07,NNW,348,0.0,0.0,47,0.00,,,0.00,VWS V14.01,2013-02-25 03:55:00,
2013-02-24 20:56:00,35.1,16.9,30.07,NNW,348,0.0,0.0,47,0.00,,,0.00,VWS V14.01,2013-02-25 03:56:00,
2013-02-24 21:00:00,34.8,17.1,30.07,NNW,348,1.0,1.0,48,0.00,,,0.00,VWS V14.01,2013-02-25 04:00:00,
2013-02-24 21:01:00,34.8,17.1,30.07,NNW,348,0.0,1.0,48,0.00,,,0.00,VWS V14.01,2013-02-25 04:01:00,
2013-02-24 21:05:00,34.4,17.2,30.08,NNW,348,0.0,1.0,49,0.00,,,0.00,VWS V14.01,2013-02-25 04:05:00,
2013-02-24 21:06:00,34.4,17.2,30.08,NNW,348,1.0,1.0,49,0.00,,,0.00,VWS V14.01,2013-02-25 04:06:00,
2013-02-24 21:10:00,34.1,17.9,30.08,NNW,348,1.0,3.0,51,0.00,,,0.00,VWS V14.01,2013-02-25 04:10:00,
2013-02-24 21:11:00,34.0,17.8,30.08,NNW,348,1.0,3.0,51,0.00,,,0.00,VWS V14.01,2013-02-25 04:11:00,
2013-02-24 21:15:00,33.4,18.1,30.08,NNW,348,1.0,3.0,53,0.00,,,0.00,VWS V14.01,2013-02-25 04:15:00,
2013-02-24 21:16:00,33.4,18.1,30.08,NNW,348,2.0,2.0,53,0.00,,,0.00,VWS V14.01,2013-02-25 04:16:00,
2013-02-24 21:20:00,33.2,17.9,30.08,NNW,348,2.0,3.0,53,0.00,,,0.00,VWS V14.01,2013-02-25 04:20:00,
2013-02-24 21:25:00,32.7,17.5,30.08,NNW,338,1.0,3.0,53,0.00,,,0.00,VWS V14.01,2013-02-25 04:25:00,
2013-02-24 21:30:00,32.7,16.6,30.09,NNW,338,1.0,3.0,51,0.00,,,0.00,VWS V14.01,2013-02-25 04:30:00,
2013-02-24 21:41:00,32.8,17.6,30.09,NNW,338,1.0,3.0,53,0.00,,,0.00,VWS V14.01,2013-02-25 04:41:00,
2013-02-24 21:46:00,32.6,18.2,30.09,NNW,348,1.0,2.0,55,0.00,,,0.00,VWS V14.01,2013-02-25 04:46:00,
2013-02-24 21:51:00,32.3,18.4,30.09,NNW,348,2.0,3.0,56,0.00,,,0.00,VWS V14.01,2013-02-25 04:51:00,
2013-02-24 21:56:00,32.0,18.1,30.10,NNW,348,0.0,3.0,56,0.00,,,0.00,VWS V14.01,2013-02-25 04:56:00,
2013-02-24 22:00:00,31.9,18.0,30.10,NNW,348,3.0,4.0,56,0.00,,,0.00,VWS V14.01,2013-02-25 05:00:00,
2013-02-24 22:01:00,31.9,18.0,30.10,NNW,348,1.0,4.0,56,0.00,,,0.00,VWS V14.01,2013-02-25 05:01:00,
2013-02-24 22:06:00,32.1,17.3,30.10,NNW,348,3.0,6.0,54,0.00,,,0.00,VWS V14.01,2013-02-25 05:06:00,
2013-02-24 22:10:00,32.5,16.9,30.10,NNW,348,1.0,4.0,52,0.00,,,0.00,VWS V14.01,2013-02-25 05:10:00,
2013-02-24 22:11:00,32.5,16.9,30.10,NNW,348,3.0,4.0,52,0.00,,,0.00,VWS V14.01,2013-02-25 05:11:00,
2013-02-24 22:16:00,33.1,16.0,30.10,NNW,348,3.0,4.0,49,0.00,,,0.00,VWS V14.01,2013-02-25 05:16:00,
2013-02-24 22:25:00,33.5,16.9,30.11,NNW,348,0.0,2.0,50,0.00,,,0.00,VWS V14.01,2013-02-25 05:25:00,
2013-02-24 22:30:00,33.4,16.3,30.11,NNW,348,4.0,4.0,49,0.00,,,0.00,VWS V14.01,2013-02-25 05:30:00,
2013-02-24 22:35:00,33.5,16.4,30.11,NNW,348,4.0,4.0,49,0.00,,,0.00,VWS V14.01,2013-02-25 05:35:00,
2013-02-24 22:40:00,33.6,16.5,30.11,NNW,348,3.0,5.0,49,0.00,,,0.00,VWS V14.01,2013-02-25 05:40:00,
2013-02-24 22:45:00,33.8,16.2,30.12,NNW,348,4.0,5.0,48,0.00,,,0.00,VWS V14.01,2013-02-25 05:45:00,
2013-02-24 22:50:00,33.9,16.3,30.12,NNW,348,3.0,5.0,48,0.00,,,0.00,VWS V14.01,2013-02-25 05:50:00,
2013-02-24 22:55:00,33.9,16.8,30.12,NNW,348,3.0,5.0,49,0.00,,,0.00,VWS V14.01,2013-02-25 05:55:00,
2013-02-24 23:00:00,33.8,17.1,30.12,NNW,348,3.0,6.0,50,0.00,,,0.00,VWS V14.01,2013-02-25 06:00:00,
2013-02-24 23:05:00,33.6,17.9,30.12,NNW,348,2.0,4.0,52,0.00,,,0.00,VWS V14.01,2013-02-25 06:05:00,
2013-02-24 23:10:00,33.1,17.8,30.12,NNW,348,5.0,6.0,53,0.00,,,0.00,VWS V14.01,2013-02-25 06:10:00,
2013-02-24 23:15:00,32.9,16.8,30.12,NNW,348,5.0,6.0,51,0.00,,,0.00,VWS V14.01,2013-02-25 06:15:00,
2013-02-24 23:20:00,33.0,16.9,30.13,NNW,348,3.0,6.0,51,0.00,,,0.00,VWS V14.01,2013-02-25 06:20:00,
2013-02-24 23:25:00,33.2,16.6,30.13,NNW,331,2.0,5.0,50,0.00,,,0.00,VWS V14.01,2013-02-25 06:25:00,
2013-02-24 23:30:00,33.2,16.6,30.13,NNW,327,2.0,6.0,50,0.00,,,0.00,VWS V14.01,2013-02-25 06:30:00,
2013-02-24 23:35:00,33.2,16.6,30.13,NW,325,4.0,7.0,50,0.00,,,0.00,VWS V14.01,2013-02-25 06:35:00,
2013-02-24 23:40:00,33.4,15.8,30.13,NNW,333,6.0,7.0,48,0.00,,,0.00,VWS V14.01,2013-02-25 06:40:00,
2013-02-24 23:45:00,33.9,15.3,30.13,NNW,335,4.0,6.0,46,0.00,,,0.00,VWS V14.01,2013-02-25 06:45:00,
2013-02-24 23:50:00,34.5,14.9,30.13,NNW,338,5.0,9.0,44,0.00,,,0.00,VWS V14.01,2013-02-25 06:50:00,
2013-02-24 23:55:00,35.2,15.0,30.13,NNW,348,4.0,8.0,43,0.00,,,0.00,VWS V14.01,2013-02-25 06:55:00,